FW7908 Weather Reports


time (UTC)temp
C
wind
direction
speed
KPH
gust
KPH
rain 1hr
cm
rain 24hr
cm
rain mn
cm
humidity
%
barometer
mb
20260505021554 20 206 1.6 11.3 0.00 0.00 0.00 79 1012.5
20260505014553 20 148 3.2 8.0 0.00 0.00 0.00 78 1012.1
20260505013051 20 161 3.2 8.0 0.00 0.00 0.00 76 1012.1
20260505011555 20 160 1.6 9.7 0.00 0.00 0.00 76 1012.1
20260505010108 21 196 3.2 9.7 0.00 0.00 0.00 75 1012.1
20260505004601 21 0 3.2 8.0 0.00 0.00 0.00 73 1012.0
20260505003052 22 206 4.8 16.1 0.00 0.00 0.00 71 1011.9
20260505001554 22 145 4.8 11.3 0.00 0.00 0.00 70 1012.1
20260504234557 23 208 6.4 16.1 0.00 0.00 0.00 67 1012.3
20260504233052 23 180 4.8 16.1 0.00 0.00 0.00 65 1012.7
20260504231620 24 124 11.3 22.5 0.00 0.00 0.00 63 1012.7
20260504230055 24 157 6.4 14.5 0.00 0.00 0.00 63 1013.0
20260504224600 24 175 8.0 19.3 0.00 0.00 0.00 64 1013.2
20260504223048 25 184 11.3 16.1 0.00 0.00 0.00 61 1013.4
20260504221644 25 178 9.7 19.3 0.00 0.00 0.00 61 1013.4
20260504220052 24 216 8.0 17.7 0.00 0.00 0.00 62 1013.6
20260504214554 25 169 9.7 22.5 0.00 0.00 0.00 60 1013.7
20260504213100 25 188 9.7 17.7 0.00 0.00 0.00 58 1013.8
20260504211554 25 159 9.7 19.3 0.00 0.00 0.00 57 1013.9
20260504210054 25 205 8.0 17.7 0.00 0.00 0.00 58 1014.3
20260504204552 26 176 6.4 24.1 0.00 0.00 0.00 57 1014.3
20260504203052 25 193 8.0 14.5 0.00 0.00 0.00 56 1014.5
20260504201548 25 199 11.3 22.5 0.00 0.00 0.00 57 1014.7
20260504200054 25 200 9.7 17.7 0.00 0.00 0.00 56 1015.1
20260504194601 25 210 11.3 17.7 0.00 0.00 0.00 54 1015.4
20260504193052 25 231 11.3 19.3 0.00 0.00 0.00 56 1015.8
20260504191610 25 173 6.4 17.7 0.00 0.00 0.00 60 1015.7
20260504190048 25 159 9.7 25.7 0.00 0.00 0.00 55 1016.0
20260504184601 25 233 9.7 25.7 0.00 0.00 0.00 56 1016.3
20260504183052 24 233 9.7 20.9 0.00 0.00 0.00 57 1016.5
20260504181552 24 199 9.7 20.9 0.00 0.00 0.00 57 1016.4
20260504180059 24 167 8.0 30.6 0.00 0.00 0.00 56 1016.5
20260504174555 23 238 12.9 25.7 0.00 0.00 0.00 56 1016.7
20260504173056 23 166 16.1 25.7 0.00 0.00 0.00 55 1016.9
20260504171556 23 203 11.3 24.1 0.00 0.00 0.00 54 1017.2
20260504140104 17 203 3.2 12.9 0.00 0.00 0.00 77 1018.1
20260504081601 10 0 0.0 0.0 0.00 0.00 0.00 95 1017.8
20260504060108 11 0 0.0 0.0 0.00 0.00 0.00 93 1019.0
20260504044550 12 0 0.0 1.6 0.00 0.00 0.00 92 1019.4
20260504043051 12 0 0.0 0.0 0.00 0.00 0.00 91 1019.3
20260504041555 13 0 0.0 0.0 0.00 0.00 0.00 91 1019.3
20260504040051 13 0 0.0 0.0 0.00 0.00 0.00 90 1019.3
20260504034556 13 0 0.0 0.0 0.00 0.00 0.00 91 1019.3
20260504033059 13 0 0.0 0.0 0.00 0.00 0.00 89 1019.4
20260504031602 14 0 0.0 0.0 0.00 0.00 0.00 88 1019.3
20260504030111 15 0 0.0 1.6 0.00 0.00 0.00 87 1019.2
20260504024551 15 0 0.0 0.0 0.00 0.00 0.00 84 1019.1
20260504023054 15 0 0.0 0.0 0.00 0.00 0.00 83 1018.9